Theta_e
338 338 338 338 334 332 331 328 326 326 325 325 324 323 322 322 322 322 322 321 320 319 319 318 318 317 318 318 321 325 325 326 325 324 324 326 328 330 330 328 328 333 338 339 339 340 340 335 325 318 316 315 315 316 316 317 316 315 315 316 316 316 316 315 315 315 314 314 313 313 313 313 313 313 312 311 311 311 311 311 312 312 311 310 311
336 337 338 338 335 334 333 330 329 328 327 326 324 323 322 321 321 321 320 319 319 318 317 317 316 316 316 315 316 318 320 323 325 326 324 323 324 325 328 330 329 330 334 338 339 340 341 338 329 320 317 315 315 317 317 317 317 315 315 316 317 316 316 316 315 315 315 314 314 313 313 313 313 313 312 311 311 311 311 312 313 312 311 311 312
335 337 338 337 335 335 334 333 331 330 330 328 325 323 322 321 320 319 320 321 320 319 318 317 317 316 316 315 315 314 314 316 319 323 324 324 325 325 327 330 330 330 331 334 337 339 340 340 335 326 319 316 315 321 322 319 318 316 316 316 317 317 316 316 316 316 315 315 315 314 313 313 312 312 311 311 312 313 313 313 313 312 312 312 313
335 337 338 336 335 335 334 334 332 332 332 329 328 324 321 321 320 321 323 324 323 320 319 317 317 317 316 316 315 315 314 313 313 315 319 324 326 326 328 330 331 331 331 331 333 337 339 340 339 333 326 320 316 324 331 327 323 318 315 317 317 317 317 316 316 316 316 319 320 317 315 312 311 311 312 313 313 314 314 313 313 312 312 312 313
335 336 338 335 335 335 332 333 333 334 333 330 330 327 323 322 321 323 325 326 324 320 319 317 317 316 317 317 317 317 316 315 313 312 313 317 322 325 326 328 330 332 333 333 333 333 337 339 339 337 334 329 321 327 337 334 331 323 316 317 317 317 317 317 316 316 317 321 324 323 322 316 311 311 313 315 315 315 314 314 313 312 312 313 314
334 335 337 335 334 334 331 333 334 335 334 332 332 329 328 328 325 326 327 328 327 324 321 319 317 317 317 318 318 318 318 318 316 314 312 312 316 320 323 323 325 329 332 334 334 333 335 336 338 339 337 336 329 326 333 337 335 329 319 316 317 318 317 318 317 317 317 321 327 328 327 322 313 310 313 316 316 316 316 314 313 312 312 312 313
333 334 335 334 333 333 332 332 333 334 335 334 332 330 330 330 329 329 329 330 330 329 326 323 321 319 319 321 321 319 318 319 319 317 314 312 312 314 318 319 318 320 326 332 334 334 334 334 336 339 338 336 333 327 327 333 337 332 324 317 317 318 318 318 317 317 317 322 329 330 330 327 320 313 311 316 317 317 317 315 314 313 313 313 312
332 333 333 334 333 333 333 332 332 332 333 333 332 332 332 330 329 328 329 331 331 331 330 330 329 325 323 324 324 322 320 319 320 319 316 314 312 312 314 316 316 313 316 326 332 333 334 334 334 338 339 336 335 332 325 327 335 335 329 321 316 318 318 318 318 318 317 322 327 329 331 329 325 318 311 314 319 318 318 315 315 316 315 315 314
332 332 332 333 333 333 333 333 333 331 332 333 333 332 331 330 330 329 330 331 331 331 332 332 332 331 329 329 327 325 321 320 321 320 318 315 313 311 312 315 315 312 313 321 328 331 331 333 334 336 338 338 336 334 329 324 332 337 333 326 319 317 318 318 319 318 318 322 327 329 331 329 326 322 314 312 318 320 318 317 316 317 316 316 315
331 332 332 332 333 333 333 334 333 333 332 332 332 331 330 331 332 332 332 332 332 333 333 333 333 333 333 332 332 331 327 322 321 319 317 316 314 311 311 314 313 314 323 327 329 330 328 329 332 335 336 339 337 335 333 327 327 333 334 330 323 318 317 319 319 318 318 322 328 330 330 330 327 322 318 313 317 321 319 318 317 318 317 316 316
330 331 331 332 332 333 334 334 334 334 333 333 333 331 330 331 332 332 332 332 333 333 333 333 333 334 334 334 334 335 333 327 322 319 316 315 315 312 312 313 313 322 332 333 332 330 326 324 328 333 336 339 338 336 335 329 325 329 331 330 327 322 318 318 320 318 319 321 327 331 330 330 327 321 320 315 316 321 320 320 320 320 319 318 316
328 329 329 330 331 332 334 334 334 334 333 333 333 333 332 331 331 331 331 331 331 331 331 331 331 333 333 335 335 336 336 332 325 320 318 319 316 312 314 315 314 327 335 334 334 333 327 325 329 334 338 338 338 337 336 332 327 327 329 328 326 325 320 318 320 319 318 321 327 331 330 329 326 320 321 319 318 321 321 321 321 321 321 320 319
327 327 328 328 329 330 332 332 333 333 333 333 334 334 333 333 333 332 332 331 331 331 332 332 332 333 333 334 335 335 335 333 328 323 323 325 322 314 314 317 318 327 335 335 336 336 332 331 333 336 338 339 337 336 337 334 330 329 330 329 327 327 324 319 318 320 319 320 326 331 330 328 326 321 320 321 320 322 323 322 322 322 323 323 322
327 327 328 327 327 327 328 330 330 332 333 334 334 334 334 334 334 334 334 334 334 335 335 335 335 335 335 334 334 335 335 334 330 327 324 326 327 319 313 316 320 326 332 334 335 336 336 335 336 337 338 339 338 336 337 337 334 331 331 331 331 329 327 322 318 320 320 318 326 332 330 324 322 320 320 321 321 322 324 323 322 323 323 325 325
325 327 327 326 326 326 327 327 328 330 332 333 334 333 334 334 334 334 334 334 334 335 335 336 336 336 336 336 335 335 335 333 331 329 324 322 327 323 315 313 317 323 329 331 333 334 335 335 335 336 337 338 338 337 336 337 336 334 331 330 329 328 327 325 321 320 320 319 325 331 328 323 319 318 320 322 320 321 323 323 324 324 324 325 326
324 325 326 326 326 326 326 327 327 328 329 330 331 332 332 332 333 333 333 333 333 334 334 335 335 336 336 337 336 335 335 333 331 330 324 321 325 325 319 314 314 319 324 328 329 331 332 334 334 333 334 335 336 337 337 337 338 336 334 331 327 327 326 325 323 320 320 319 323 328 327 324 320 318 319 321 320 320 321 322 324 325 325 325 327
323 324 325 326 325 326 326 326 327 327 327 327 328 329 329 330 331 331 332 332 332 333 333 334 334 335 336 337 337 336 336 333 330 329 325 321 324 327 323 317 314 314 318 322 325 327 328 331 334 334 333 333 333 333 335 336 338 338 337 335 332 330 326 325 325 322 321 320 323 329 328 325 322 318 319 321 320 319 320 321 322 325 326 327 327
323 324 324 325 325 325 325 325 326 326 326 326 327 327 327 327 328 329 329 330 331 332 332 332 333 334 335 336 338 337 336 333 328 327 324 323 324 326 327 324 319 316 315 317 321 324 326 327 330 333 334 333 333 332 332 334 336 337 337 338 336 333 329 327 326 324 323 321 324 330 330 327 324 319 318 321 320 318 319 320 322 324 326 327 327
322 323 323 323 323 324 324 324 325 325 325 325 325 325 325 325 326 326 327 328 329 331 332 332 333 334 334 335 337 337 336 332 327 326 324 323 325 326 327 326 325 322 320 319 319 321 323 325 327 330 334 334 334 333 332 332 333 334 335 337 338 336 331 329 327 323 323 322 324 330 331 328 325 321 318 320 321 319 319 321 323 325 326 327 327
320 321 321 321 322 322 323 323 323 323 324 324 324 324 324 324 324 324 325 326 326 328 330 331 332 333 333 334 335 336 335 331 327 327 325 324 325 326 326 326 327 326 325 324 322 320 320 322 324 328 331 333 333 333 332 331 331 331 332 334 337 337 332 329 327 323 322 323 324 327 329 326 324 322 319 319 320 319 319 323 325 326 327 328 328
319 319 319 320 320 320 321 321 321 322 323 322 323 323 323 322 322 323 323 323 324 325 327 329 330 331 332 332 332 333 332 328 327 328 327 326 327 327 327 327 328 327 326 326 325 322 320 318 320 323 326 328 329 330 330 330 330 330 331 331 333 335 333 327 326 324 321 321 323 324 325 324 322 321 320 319 320 320 321 323 325 327 329 329 330
319 319 319 319 319 320 320 320 320 321 322 322 321 321 322 322 322 322 322 322 323 323 325 327 328 328 329 330 331 331 330 327 327 328 329 329 330 330 330 329 329 328 327 326 326 324 322 319 317 318 320 322 324 326 327 328 328 329 330 330 330 332 333 329 326 325 322 320 321 322 323 321 320 320 319 319 319 321 321 323 325 327 329 330 330
318 319 318 319 319 319 320 319 320 320 320 321 321 320 321 321 321 321 322 322 322 322 323 324 326 327 328 329 330 330 328 326 325 327 329 330 331 331 331 331 330 329 328 327 325 325 324 323 319 316 316 317 319 320 322 324 325 326 328 329 330 330 333 333 329 327 324 320 319 320 322 321 320 318 319 319 319 320 321 323 324 326 328 329 330
318 318 317 317 318 319 319 319 319 319 319 320 320 320 320 320 320 321 321 321 322 322 322 322 324 325 326 328 329 329 328 327 326 325 327 328 329 330 330 330 330 328 328 326 326 327 326 326 324 321 319 318 319 319 321 323 325 326 327 328 329 330 332 334 333 331 329 325 320 318 320 321 320 318 318 319 319 320 320 321 323 325 327 328 329
315 316 316 316 317 318 318 319 319 319 319 319 320 319 319 319 320 320 320 320 321 321 322 322 322 323 324 326 327 328 329 328 327 326 326 326 327 328 328 328 329 328 327 327 328 329 329 328 328 327 327 326 325 325 325 326 328 328 329 329 329 330 330 332 333 333 334 332 325 320 321 322 322 321 318 319 319 320 320 320 322 324 326 327 327
313 314 315 315 315 315 317 318 318 318 318 318 319 318 318 319 319 319 319 319 320 320 321 322 322 322 323 323 324 325 326 327 327 328 327 327 327 327 327 327 327 327 326 327 327 328 330 329 329 328 329 330 330 329 328 328 328 328 328 329 330 330 330 330 331 332 333 334 330 325 322 321 322 322 320 319 318 319 319 320 320 323 326 326 327
311 312 313 313 313 314 315 316 316 316 316 316 317 317 317 317 317 317 317 318 318 319 320 321 321 322 322 322 322 323 323 324 325 326 326 326 327 327 327 327 327 326 326 326 327 327 328 328 329 329 328 329 329 329 329 329 328 328 327 327 329 329 328 329 329 330 331 333 333 330 327 324 323 322 321 320 320 319 319 319 319 320 323 325 326
308 309 310 311 311 312 313 312 312 312 314 314 314 314 314 315 315 315 315 316 316 317 318 319 319 320 321 321 321 321 321 322 322 323 323 324 324 324 325 325 326 326 326 327 327 327 327 326 327 328 328 328 328 329 329 329 329 328 328 327 327 328 328 328 328 328 329 331 332 332 332 331 328 325 322 320 319 319 319 320 321 320 320 321 324
306 307 308 308 308 309 309 309 309 309 311 311 310 310 310 311 312 312 313 313 313 314 314 315 316 317 318 319 319 320 320 320 320 321 321 322 322 322 323 323 324 324 325 326 326 327 328 327 326 325 327 328 328 329 329 329 328 328 328 328 327 327 326 327 327 327 327 328 330 332 332 332 332 330 327 325 324 322 320 319 320 321 320 320 322
304 305 306 306 306 306 306 306 306 307 307 308 308 308 308 308 309 310 310 310 311 311 311 312 313 314 315 315 316 317 317 318 318 318 319 319 320 320 321 321 322 323 323 324 325 326 327 328 328 326 325 325 325 326 327 328 329 329 328 328 328 327 326 325 326 326 326 326 327 328 329 330 331 332 331 331 330 329 326 322 319 318 319 319 320
303 303 304 305 304 304 304 303 304 305 305 305 306 306 306 306 307 307 308 308 309 309 310 310 311 311 312 313 314 314 314 315 315 316 317 317 317 318 318 318 319 320 321 322 323 324 325 326 327 327 326 325 325 324 324 325 328 329 329 329 329 328 328 327 326 326 325 325 325 325 326 327 328 329 330 330 330 330 330 329 326 322 320 319 318
302 302 303 302 302 302 303 302 303 304 304 304 305 305 305 305 305 306 307 307 307 308 308 309 310 310 311 312 312 312 312 313 314 314 314 315 315 315 315 316 317 317 318 319 320 321 322 323 324 325 326 326 326 326 326 325 326 328 329 329 329 329 329 329 328 327 326 326 325 325 325 324 324 325 327 327 328 328 329 330 330 329 326 324 321
302 301 301 301 301 301 302 302 302 303 303 304 304 304 304 304 305 306 306 306 306 307 308 308 309 309 310 310 311 311 311 312 312 312 312 313 313 314 314 314 314 315 315 316 317 318 319 321 321 322 323 324 325 326 327 327 327 327 328 329 329 329 328 329 329 328 328 328 327 326 326 325 323 322 322 324 327 328 328 329 329 329 329 330 328
301 300 300 300 300 301 301 301 301 302 303 303 303 303 304 304 305 305 305 306 306 307 307 308 308 308 309 309 310 310 311 311 311 311 312 312 312 312 313 312 312 312 313 313 314 315 316 318 319 320 320 321 322 323 324 325 325 326 326 327 329 329 329 329 328 328 328 328 328 328 328 328 327 326 324 324 325 326 326 327 327 328 329 330 330
300 299 299 299 299 300 300 300 300 302 302 302 302 303 303 304 303 303 304 304 305 306 306 307 307 307 308 308 309 309 309 310 310 311 311 311 311 311 311 311 310 311 311 311 312 312 313 314 315 316 317 317 318 318 319 320 321 322 323 324 326 327 328 328 328 328 328 328 328 329 329 329 329 328 328 327 326 325 324 325 326 326 327 327 328
299 298 298 298 298 299 299 300 300 301 301 301 301 301 302 302 302 302 303 303 304 304 304 305 305 305 306 307 308 308 308 308 308 310 311 310 310 310 310 309 309 310 310 310 310 310 311 311 311 312 313 314 314 315 315 316 317 318 319 320 321 322 323 326 327 328 328 328 328 328 328 329 329 329 329 329 329 328 327 326 326 326 327 327 327
299 297 297 297 297 298 298 299 300 300 300 300 300 299 299 300 300 300 301 301 302 302 302 303 303 304 305 305 306 306 306 306 307 307 308 309 309 309 308 308 309 309 309 309 309 310 310 310 310 310 311 311 312 313 313 313 314 314 315 315 317 318 319 321 323 325 325 326 326 327 327 327 328 328 329 329 329 329 328 328 328 328 328 328 328
297 296 296 296 296 296 297 297 298 298 299 299 298 297 297 297 297 297 298 299 299 300 300 300 301 301 302 302 303 304 304 304 305 305 306 306 306 306 307 307 307 308 308 308 308 308 308 309 309 309 309 309 310 311 311 311 311 312 313 313 314 314 316 317 319 321 322 323 324 324 324 325 326 327 327 327 327 327 328 328 328 328 328 328 328
295 295 295 295 295 295 295 295 295 296 296 296 296 296 295 295 294 295 295 296 296 296 297 297 298 298 298 299 299 300 300 300 301 302 303 304 304 304 304 304 305 305 306 306 307 307 307 307 307 307 307 307 308 308 309 309 310 310 311 311 312 313 313 314 316 319 320 319 320 320 321 321 322 323 323 323 324 325 325 326 325 325 326 327 327
293 293 294 294 294 293 293 293 293 293 293 293 293 293 293 293 293 293 293 293 293 293 294 294 295 295 295 295 296 297 297 297 298 298 299 300 300 301 301 301 301 302 303 304 304 304 304 304 304 305 306 306 306 307 307 308 308 309 309 310 310 311 311 311 314 316 317 316 316 316 317 317 318 319 319 320 321 322 323 323 323 323 324 325 325
291 292 292 293 292 292 292 292 291 291 292 292 292 292 292 292 292 292 291 291 291 291 292 292 292 292 292 293 294 294 294 295 295 295 296 296 297 297 297 298 298 298 299 299 299 299 299 300 300 301 302 303 304 304 305 306 306 308 309 309 308 308 310 311 312 313 314 313 313 314 314 315 315 315 315 315 316 317 319 319 319 320 321 322 323
289 290 291 292 291 291 291 291 290 290 291 291 291 291 290 290 290 290 289 290 290 290 290 290 290 290 291 291 291 292 292 292 293 293 293 294 294 294 295 295 295 295 295 294 295 295 296 297 298 299 298 298 299 301 302 303 304 305 306 307 306 307 309 309 309 311 311 311 311 312 312 313 313 313 312 313 313 314 315 315 315 316 317 318 319
288 289 289 290 290 290 290 290 289 289 290 290 290 290 289 289 288 288 288 288 289 288 289 289 289 289 289 290 290 290 290 291 291 291 291 292 292 292 292 292 292 293 293 293 293 293 294 294 295 295 295 295 295 296 298 300 302 302 303 304 304 305 306 306 307 308 308 308 309 310 309 310 311 311 311 311 312 312 312 312 312 312 312 313 314
287 287 288 288 289 289 289 288 288 288 288 288 288 288 288 288 287 287 287 287 287 287 287 288 288 288 289 289 289 289 289 289 289 290 290 290 290 290 290 290 290 290 291 291 291 291 292 291 292 292 292 293 293 293 293 296 298 299 300 301 301 301 301 302 304 305 305 306 308 307 306 307 308 308 309 309 309 310 310 310 310 310 310 310 311
286 287 287 287 287 287 287 287 287 287 286 287 287 287 287 287 287 287 287 287 287 287 288 288 288 288 288 288 288 288 288 288 288 289 289 289 289 289 289 289 289 289 289 289 289 289 289 289 290 289 290 290 290 290 290 291 292 292 294 295 296 296 296 298 299 301 303 304 305 305 304 305 305 305 306 306 306 307 307 307 308 308 308 308 308
285 286 286 286 286 286 286 286 286 286 286 286 286 286 286 286 286 287 287 287 288 288 288 288 287 287 287 287 287 287 288 288 288 288 288 288 288 288 288 288 288 288 288 288 288 288 288 288 288 288 288 288 288 289 289 289 289 289 289 289 289 289 290 294 294 295 299 301 302 303 303 304 304 304 304 304 304 305 305 305 305 306 306 306 307
285 285 286 286 285 286 285 285 285 285 285 285 286 286 286 286 286 287 287 287 287 287 286 286 286 286 286 286 287 287 287 287 287 287 287 288 288 288 288 288 288 288 288 288 288 288 288 287 287 287 287 287 287 287 287 288 288 288 288 287 287 286 287 288 287 287 290 293 296 299 301 302 301 301 302 302 302 302 302 303 303 304 304 305 306
285 285 285 285 285 285 285 285 285 285 285 285 285 286 286 286 286 286 286 286 286 286 285 285 285 285 285 285 285 285 285 285 285 286 286 286 286 286 286 286 287 287 287 287 287 287 287 287 287 287 287 286 286 286 286 286 287 287 287 287 288 287 286 286 285 284 284 286 289 292 294 297 298 298 297 298 298 298 299 299 301 303 303 304 305
284 284 284 285 285 285 285 285 285 285 285 285 285 285 285 285 285 286 286 285 285 284 284 284 284 283 283 283 283 283 283 283 283 283 283 284 284 284 284 284 284 285 285 285 285 285 286 286 287 287 287 286 286 285 285 285 285 285 285 286 286 287 287 286 286 285 284 284 286 287 289 290 292 293 294 294 294 294 295 295 298 301 302 302 303
284 284 284 284 284 284 284 284 284 285 285 285 285 285 285 285 285 285 284 284 283 283 283 283 283 282 282 282 282 282 282 282 282 282 282 282 282 283 283 283 283 283 283 283 283 283 283 284 284 284 285 285 285 285 284 284 284 284 284 284 284 284 285 286 286 285 284 283 283 284 286 287 287 288 290 292 292 292 291 292 296 300 301 302 302
283 283 283 284 284 284 284 284 284 284 284 284 284 284 284 284 284 283 283 282 282 282 282 282 282 282 282 282 282 282 282 282 282 282 282 282 282 282 282 282 282 282 282 282 282 282 282 282 282 282 282 283 283 283 283 283 284 284 284 284 283 282 282 283 284 283 282 282 282 283 284 285 286 286 286 288 289 290 290 291 296 299 299 299 298
Wind_Speed
10 14 20 12 2 3 2 2 2 3 3 3 3 3 4 4 4 4 5 5 6 6 6 7 7 7 6 6 5 5 5 4 5 6 6 5 5 5 5 4 3 4 4 4 3 3 4 3 3 3 2 2 1 1 1 0 1 2 3 3 3 4 6 8 9 10 10 10 9 7 6 5 4 4 3 3 3 3 2 2 0 3 4 4 6
11 13 19 13 6 5 3 2 2 2 3 3 3 3 3 3 4 4 4 4 4 5 6 6 7 8 8 8 7 6 6 4 4 5 6 5 6 5 5 5 4 5 5 5 4 4 4 4 4 4 3 2 2 1 1 1 1 2 2 3 2 3 5 7 8 9 10 10 10 8 7 6 5 4 5 5 5 4 4 2 2 5 5 4 5
9 11 14 11 8 7 6 3 2 2 3 3 3 2 2 3 3 3 3 4 4 4 5 5 6 7 8 8 8 8 8 7 6 5 6 5 5 5 5 5 5 5 5 6 6 5 4 5 5 5 4 3 3 2 2 2 1 2 2 2 1 2 4 6 7 8 9 9 9 8 8 6 5 5 5 6 5 5 4 4 5 5 4 4 4
7 8 10 9 8 7 7 5 3 2 2 2 3 2 1 1 1 2 2 4 4 4 4 5 5 6 7 7 8 8 8 9 8 7 6 5 4 5 5 5 5 6 6 6 7 7 5 5 5 6 5 4 3 1 2 2 1 3 4 3 1 1 3 4 6 7 8 9 8 6 8 7 5 5 5 6 6 6 6 6 6 5 5 6 4
6 5 6 9 8 7 7 5 4 3 1 0 1 2 2 2 3 3 3 3 3 3 3 4 5 6 6 7 8 9 9 9 9 9 9 7 6 6 6 6 6 6 6 6 6 7 7 7 6 6 5 5 4 2 2 3 4 4 5 4 2 1 1 3 5 6 7 10 9 6 9 9 4 4 5 6 6 6 6 6 6 6 6 7 5
5 3 3 7 7 6 6 5 5 4 2 1 1 3 2 3 4 4 3 3 4 4 4 4 4 5 6 7 8 9 10 10 9 9 10 10 9 9 8 7 7 7 8 7 7 7 9 9 9 7 6 5 4 4 5 5 6 5 5 5 4 2 1 2 3 4 6 9 10 7 9 11 6 3 3 5 5 5 5 6 6 7 7 7 7
7 2 2 4 5 5 6 6 6 4 4 3 4 5 4 4 4 3 3 3 4 4 4 4 5 5 6 7 8 9 10 10 10 10 9 10 11 11 10 9 8 8 9 9 9 8 9 11 11 10 8 7 5 5 7 7 7 7 6 6 6 4 2 1 2 2 4 8 9 6 4 10 10 5 2 3 4 4 4 5 6 7 8 8 9
9 4 1 3 4 4 5 7 8 7 6 6 6 7 7 7 7 7 6 5 5 5 6 5 6 6 6 7 7 8 10 11 11 10 10 10 11 12 11 11 9 9 9 10 10 10 11 12 11 11 10 9 7 6 8 9 9 9 8 6 7 6 4 2 1 1 2 5 7 6 2 11 11 7 4 1 1 2 3 4 7 8 8 8 9
10 7 4 1 3 4 5 7 9 10 10 9 8 8 9 10 9 9 9 8 8 8 8 7 7 7 7 7 7 8 9 11 11 11 10 9 10 11 11 11 10 9 9 9 10 12 14 13 12 12 12 12 9 8 9 11 11 10 10 7 7 8 6 4 3 2 0 3 6 5 4 12 11 8 6 3 1 1 2 4 6 7 7 7 7
9 7 5 3 0 2 4 6 9 11 12 12 12 11 11 11 11 10 10 10 10 10 10 9 9 9 9 9 9 9 9 11 12 11 9 8 8 10 10 10 10 9 8 8 9 13 15 15 13 13 15 15 11 9 10 11 13 13 12 9 8 9 9 7 5 4 2 1 5 3 6 11 11 9 7 6 4 3 1 2 4 5 5 5 6
9 8 7 5 2 0 2 4 7 10 12 14 14 14 14 14 13 13 12 12 13 13 13 12 12 12 11 11 11 10 9 10 12 12 10 7 7 8 9 10 10 9 9 9 11 13 14 14 15 16 17 17 13 10 10 12 13 14 15 12 10 9 10 10 8 6 5 2 4 2 8 11 12 10 7 7 6 5 3 1 1 3 3 4 4
10 10 9 7 4 2 2 3 4 8 10 12 14 15 16 16 16 16 16 16 17 17 17 17 16 15 14 13 13 12 10 9 11 12 9 7 7 7 8 9 10 10 9 9 11 11 11 12 14 16 17 17 13 10 11 12 12 14 16 15 13 11 10 12 10 9 7 5 4 3 10 11 12 11 7 7 6 7 6 3 2 0 1 2 2
10 10 10 9 6 3 2 3 3 4 7 9 11 13 15 16 17 17 17 18 18 19 19 19 18 18 17 15 15 13 11 9 10 11 9 7 7 7 8 9 9 10 10 9 10 11 11 13 15 15 16 17 14 12 13 14 13 13 16 16 14 12 11 13 13 11 10 8 4 6 13 12 12 12 8 7 8 8 8 6 4 3 2 2 3
9 9 9 9 9 7 4 3 2 2 4 6 7 9 11 13 14 15 16 16 17 18 18 18 18 18 18 18 16 15 13 10 9 10 9 7 7 7 8 9 9 10 11 10 10 10 11 11 13 15 16 16 14 15 15 15 15 14 16 16 16 13 11 13 15 13 13 11 7 9 15 13 12 13 10 9 9 9 9 8 6 6 5 5 5
8 7 7 9 9 8 8 7 5 3 3 4 6 7 9 10 12 13 14 15 15 16 16 16 16 16 17 18 18 16 14 10 8 9 9 8 7 6 7 9 9 9 11 11 10 11 11 11 12 13 12 14 15 16 16 15 16 16 18 18 17 15 13 13 15 16 15 14 10 11 16 14 13 12 11 11 11 10 10 9 9 8 8 7 7
9 7 7 7 7 7 8 8 7 6 4 2 3 4 6 7 8 10 11 11 11 12 12 12 13 13 13 16 19 18 16 12 8 8 8 6 6 6 6 7 9 10 11 11 12 11 11 11 11 11 11 12 14 15 16 16 17 17 19 19 18 16 14 14 15 18 18 16 13 13 16 16 16 13 11 11 11 11 11 10 10 10 9 9 9
10 8 7 6 6 7 7 8 8 7 7 6 5 4 4 5 5 6 7 8 9 10 10 9 10 10 11 13 17 19 18 14 9 7 7 6 5 5 6 6 9 10 11 11 12 13 12 11 10 10 9 11 12 14 16 18 20 19 20 20 20 17 14 14 15 18 19 19 15 13 16 16 17 16 12 12 12 12 12 11 12 11 11 11 10
8 6 5 5 5 6 6 7 6 6 6 6 6 5 6 6 6 7 7 7 8 8 9 9 8 8 9 10 15 18 17 14 9 8 8 6 6 5 5 6 8 9 11 12 12 13 13 13 12 11 10 10 11 13 14 16 18 20 22 21 21 20 15 13 14 17 19 20 16 13 17 18 17 18 15 14 14 13 13 13 13 12 12 12 12
6 5 5 4 5 5 5 5 5 5 5 5 5 5 5 6 7 7 7 8 8 7 7 7 7 6 7 9 13 16 17 15 11 10 8 7 7 6 7 7 7 8 10 12 13 13 14 14 14 12 11 10 11 12 12 12 13 16 19 20 23 23 16 13 14 16 20 21 19 16 18 19 18 19 17 16 15 14 14 14 13 13 13 14 14
7 6 7 6 6 6 5 6 5 4 4 6 6 5 6 5 6 6 6 8 8 8 8 7 6 5 5 7 10 13 15 15 13 11 10 9 9 8 9 8 8 8 10 11 13 14 15 15 15 14 13 12 11 12 12 12 13 14 15 16 21 25 17 13 15 16 19 22 21 19 20 20 19 20 19 18 17 16 15 15 15 14 14 15 15
8 8 8 7 7 7 6 6 6 5 4 6 6 5 6 6 6 6 6 7 8 8 9 8 7 6 4 4 7 10 13 14 13 12 11 10 10 9 9 9 9 9 10 11 13 14 15 16 17 17 16 16 16 16 16 14 14 15 15 15 16 19 17 17 18 17 19 23 25 23 21 20 20 20 20 19 19 18 18 17 16 15 15 16 16
7 7 8 7 7 6 6 6 6 6 4 5 6 6 6 6 7 6 6 7 7 8 8 8 7 6 4 3 5 9 12 14 14 12 11 10 10 9 9 9 9 10 11 11 12 12 13 15 17 18 19 18 18 19 19 19 18 18 17 17 15 15 17 20 20 19 19 21 26 27 24 21 21 21 21 20 20 21 21 20 18 16 16 17 19
5 5 6 5 6 5 6 6 7 6 5 5 6 7 6 7 7 7 7 7 7 8 8 8 7 6 5 3 4 8 12 14 13 12 11 11 11 11 10 9 10 11 11 12 12 12 12 13 14 16 18 18 20 20 21 22 22 21 20 19 18 15 15 18 20 20 21 21 23 27 28 26 23 22 22 21 21 22 23 23 21 19 18 19 20
5 5 6 5 5 5 5 6 7 7 6 5 6 7 7 7 7 8 7 7 7 7 8 8 8 7 5 3 3 6 9 12 13 13 13 13 13 13 13 12 12 12 12 13 13 13 12 12 11 13 14 15 18 20 21 21 21 20 20 20 20 18 14 15 19 21 22 23 22 24 28 29 28 26 24 23 23 23 25 26 24 22 21 20 20
6 5 6 6 5 5 5 5 6 7 7 6 6 7 7 7 7 8 8 8 8 8 8 8 7 7 6 4 3 4 7 9 12 14 15 16 16 16 16 15 15 15 14 14 14 13 12 11 10 10 11 12 14 16 18 18 18 18 19 19 19 18 16 16 20 21 22 24 23 22 25 28 30 29 27 26 25 25 25 27 27 25 23 22 22
6 5 5 6 6 6 5 5 6 6 7 6 7 7 7 7 8 9 9 8 9 8 8 8 8 7 6 5 3 2 4 6 8 11 13 15 17 18 18 18 18 18 18 17 16 15 14 12 11 11 11 12 13 14 16 17 19 19 19 20 19 18 18 19 21 21 21 24 24 22 23 26 29 31 31 30 28 27 27 27 28 28 26 24 24
7 7 6 6 6 6 6 6 6 6 6 7 7 7 8 8 9 9 9 9 9 8 8 8 9 9 8 6 5 5 4 4 5 6 8 10 12 14 15 17 18 18 19 20 20 20 18 16 14 13 12 13 14 14 15 17 19 20 21 21 21 20 19 19 20 21 21 24 24 22 23 25 27 30 32 33 32 31 30 29 29 30 30 29 27
9 9 8 8 8 7 8 8 8 8 7 8 9 9 9 10 9 9 9 9 9 9 10 10 10 10 10 9 8 8 7 7 6 6 6 7 8 9 11 12 13 15 16 18 19 21 22 21 19 16 15 15 15 15 15 15 17 19 20 21 21 21 21 20 20 21 21 23 24 24 23 24 26 27 29 32 33 33 33 33 32 32 33 33 31
11 11 10 9 10 10 10 10 10 10 10 10 11 11 12 11 11 11 11 11 11 11 12 12 11 11 11 11 11 10 10 10 10 10 9 9 9 9 10 10 11 11 12 13 14 16 18 20 21 20 19 18 17 17 17 17 16 17 18 19 21 22 22 22 21 21 21 23 25 25 25 26 28 27 27 29 31 32 33 35 35 35 35 36 35
13 12 10 10 11 11 10 11 11 12 12 12 13 13 14 14 14 14 14 13 13 14 13 13 13 13 13 13 13 13 13 13 13 13 12 12 12 12 12 12 12 12 12 12 12 12 13 15 18 20 22 22 21 20 20 20 19 18 17 17 19 21 22 23 22 22 22 23 25 26 26 27 28 28 29 31 31 32 32 33 34 35 37 39 38
12 11 11 11 11 10 10 11 11 11 12 13 13 13 14 14 15 15 15 15 15 14 14 14 14 14 14 15 14 15 15 14 14 14 14 15 14 14 15 15 14 14 14 14 13 13 12 12 13 15 19 22 23 24 24 24 23 22 19 17 17 18 20 21 22 23 23 24 25 25 25 26 27 28 30 33 34 34 33 33 33 33 35 37 40
12 11 11 11 10 10 10 11 11 11 12 12 11 11 12 13 14 14 15 15 15 14 14 15 15 14 14 14 14 14 14 14 14 14 14 15 15 15 16 16 16 15 15 15 15 14 13 12 12 12 13 16 19 23 25 26 26 25 23 21 19 18 18 19 20 21 22 23 24 24 25 26 27 29 31 32 34 36 36 36 35 35 36 36 38
11 11 10 9 9 9 9 9 10 10 11 11 10 11 12 12 12 13 13 13 13 13 14 14 14 13 13 13 13 12 13 13 13 14 14 14 14 14 15 15 15 15 15 15 15 14 13 12 11 11 12 12 14 17 19 21 24 26 26 25 24 22 21 20 19 18 19 21 22 23 24 26 28 29 30 31 32 34 35 36 36 37 38 37 37
10 10 9 8 8 8 8 8 9 10 10 9 9 10 11 10 11 11 11 10 10 11 11 12 12 12 12 12 12 12 12 12 12 13 13 13 13 13 13 13 14 14 14 14 15 15 15 14 12 12 13 13 12 13 14 15 17 19 22 24 25 26 26 24 22 20 19 19 21 22 22 24 26 28 29 30 31 32 34 36 36 37 38 36 35
9 8 8 8 7 7 7 7 8 9 8 9 9 10 10 9 9 9 9 9 9 9 10 10 10 11 11 11 11 11 12 11 11 12 12 13 14 13 13 13 13 14 14 14 14 15 16 16 15 14 14 14 13 13 14 14 14 15 17 18 20 22 25 25 24 24 23 22 22 22 21 22 24 26 28 30 31 31 31 33 35 37 37 38 37
8 8 8 7 7 7 7 7 7 7 7 8 10 10 9 8 8 8 9 9 8 9 9 10 10 10 10 10 11 11 11 12 12 12 12 13 14 14 14 14 14 14 14 15 15 15 15 17 18 18 17 17 16 16 15 15 15 15 16 16 17 18 20 22 23 25 26 25 25 25 25 24 25 25 26 27 28 27 28 30 32 33 32 33 35
6 6 6 6 6 6 7 7 7 7 7 8 10 10 9 9 8 8 8 8 8 8 9 9 9 9 10 10 11 11 11 12 13 13 12 13 13 14 15 15 15 15 15 16 16 16 16 16 18 19 20 20 20 19 18 18 18 17 17 17 16 17 17 18 20 22 25 27 29 30 29 29 29 28 27 26 24 25 27 29 29 29 29 28 28
5 5 5 4 4 5 6 6 6 7 7 7 9 10 10 10 9 9 9 9 9 9 9 9 8 8 9 9 10 10 10 11 12 12 13 13 14 14 15 15 16 16 16 17 17 17 17 17 18 19 20 22 22 22 22 22 21 20 19 18 17 16 16 15 16 17 19 21 23 25 26 26 27 29 27 23 21 21 24 26 26 26 27 27 26
6 4 3 3 3 4 5 6 6 6 7 7 8 9 9 9 10 9 9 9 10 10 10 9 9 9 10 10 10 10 10 10 11 11 12 12 13 14 15 15 16 16 16 17 17 18 18 19 19 19 19 20 22 22 23 23 22 21 19 18 17 15 15 16 15 15 14 14 14 15 15 16 17 19 20 20 20 21 21 21 22 20 20 21 22
7 5 3 2 2 3 4 5 5 5 6 7 8 8 8 8 8 8 8 9 10 10 10 10 10 11 11 11 11 11 11 11 11 11 11 11 12 12 13 14 15 16 17 18 18 20 20 20 21 20 20 20 20 22 23 24 24 21 18 16 16 17 17 16 13 13 13 13 14 14 13 13 12 13 14 14 16 18 19 19 19 19 17 17 18
8 7 4 3 3 3 4 4 5 5 5 7 7 7 7 7 7 8 8 9 10 9 10 10 11 11 11 11 11 12 12 12 12 12 12 12 12 13 13 14 15 16 17 17 18 18 19 19 18 19 20 21 22 24 25 26 27 25 24 21 19 17 15 14 13 12 13 12 14 15 15 14 14 14 14 14 14 15 16 18 20 21 21 20 19
10 8 6 5 4 4 4 5 5 5 5 6 6 7 8 8 8 9 9 9 9 9 10 11 11 11 11 11 12 12 12 13 13 14 13 14 14 14 14 15 15 16 16 16 17 17 18 18 18 18 19 20 21 23 26 27 28 27 27 27 25 19 13 14 13 10 12 12 13 15 17 17 16 16 17 18 17 17 17 18 20 21 22 22 22
11 9 8 6 6 5 5 5 5 5 5 5 6 7 8 8 9 9 9 8 9 10 10 11 11 11 11 12 12 13 13 14 14 15 15 15 15 16 16 17 17 17 17 17 18 18 19 19 20 20 19 18 18 20 23 24 25 26 25 24 24 22 20 18 14 10 14 15 12 14 19 20 19 20 21 21 21 21 21 21 21 22 23 24 24
11 10 9 8 7 6 6 6 6 6 6 6 7 7 7 8 8 9 8 8 9 9 9 9 10 10 11 12 13 13 14 14 15 15 15 16 16 17 17 17 18 18 18 19 19 20 21 21 21 21 21 21 20 20 20 21 22 24 24 21 19 19 21 25 26 22 18 14 12 16 22 24 23 23 24 25 25 25 25 25 25 25 26 26 26
12 11 10 9 8 8 7 8 7 7 7 7 8 8 8 8 8 8 7 7 6 6 6 8 10 10 11 12 13 13 14 14 14 15 15 16 16 16 17 17 18 18 19 19 20 20 20 21 21 21 22 22 21 20 18 18 20 21 22 18 15 15 20 28 33 28 22 16 17 22 24 26 27 27 28 28 27 27 28 28 27 27 26 26 26
12 11 10 9 9 8 8 8 8 8 8 7 7 7 7 7 6 5 5 6 6 7 8 10 11 12 12 13 13 13 13 14 14 15 15 15 16 16 16 17 17 18 18 19 19 19 20 21 21 21 21 21 21 20 18 17 16 16 18 16 13 13 19 25 26 28 33 28 24 24 26 27 27 27 28 28 28 27 27 27 27 26 24 23 23
12 11 10 10 9 8 8 8 7 7 7 6 6 5 5 5 6 6 7 8 8 10 11 11 12 12 12 12 12 13 13 14 14 15 15 15 16 16 16 17 17 17 17 18 18 19 20 20 20 21 21 21 21 22 21 19 16 14 14 13 12 13 16 19 20 27 36 37 30 25 25 27 26 27 27 27 28 28 26 25 25 24 22 21 21
13 12 11 10 9 8 7 7 6 5 5 5 4 4 5 6 7 8 8 9 10 11 11 11 11 12 12 12 12 13 13 14 14 15 15 15 15 16 16 16 16 17 17 17 18 18 18 18 19 19 19 20 21 21 22 21 21 19 17 15 14 15 16 17 19 23 28 35 38 32 27 26 26 27 28 27 27 26 25 24 21 19 20 19 20
14 13 12 10 9 8 7 6 5 4 4 3 3 4 5 6 7 8 8 9 10 10 10 11 11 11 12 12 12 13 13 14 14 15 15 15 16 16 16 16 16 17 17 17 17 17 17 18 18 19 19 19 19 20 20 20 21 21 21 20 18 18 18 18 19 22 25 28 34 37 37 35 31 28 28 28 28 26 24 22 18 16 18 20 21
15 14 12 11 10 9 7 6 5 3 3 2 3 4 5 6 7 8 8 9 9 10 10 10 10 11 11 12 13 13 14 14 15 15 16 16 16 16 16 17 17 17 17 17 17 17 18 18 18 18 19 19 18 19 19 19 19 19 20 21 22 22 22 22 22 24 26 26 29 35 38 39 39 35 30 29 29 28 25 21 16 16 19 20 21
16 15 13 12 11 9 7 6 4 3 2 2 3 4 6 7 8 9 9 9 9 9 9 10 10 11 12 12 13 14 14 15 15 16 16 17 17 17 18 18 18 18 18 18 18 18 18 18 18 18 18 18 18 18 18 18 19 19 19 19 20 20 19 19 21 24 25 26 29 33 34 35 38 38 34 32 29 28 26 21 15 16 20 22 23
Wind_Direction
93 85 73 67 99 84 38 58 51 49 50 55 56 55 58 56 51 41 32 24 18 15 9 6 1 357 354 353 352 346 346 345 338 333 333 333 333 337 345 335 294 290 297 309 296 279 309 330 328 327 349 359 356 10 66 106 160 153 130 105 87 61 48 45 44 41 36 34 38 45 50 52 61 72 84 84 77 64 58 54 11 82 91 143 176
72 84 84 86 127 98 77 73 49 49 34 29 36 36 35 33 29 24 20 12 7 5 3 359 356 352 348 346 340 335 331 327 321 320 320 323 327 322 324 329 315 301 290 296 300 270 292 316 310 309 317 341 341 312 3 353 245 201 164 120 97 53 46 47 42 40 37 34 34 38 46 51 57 66 80 84 78 66 57 44 32 68 94 125 146
71 88 100 107 141 109 91 76 68 68 26 6 9 14 14 15 9 12 7 359 355 351 353 353 351 348 345 344 338 332 325 317 309 301 303 312 319 314 307 307 305 301 293 293 300 284 275 299 304 309 316 335 350 324 306 314 280 239 208 149 118 56 47 44 41 36 36 35 31 33 37 44 62 76 85 86 80 69 65 58 51 64 93 111 122
87 100 124 134 152 132 110 94 105 89 42 10 355 328 307 321 320 334 334 336 338 341 346 346 346 346 347 349 347 340 329 316 306 295 289 287 284 283 282 280 285 289 292 290 293 294 277 272 283 299 313 325 340 320 282 299 300 253 232 194 175 76 51 43 42 33 35 38 32 34 34 33 57 79 89 84 78 73 71 69 67 78 94 99 110
94 104 147 160 161 149 133 117 118 85 80 174 340 292 281 262 253 265 291 319 324 327 331 333 337 341 347 351 352 349 342 329 312 298 286 275 264 259 264 265 270 275 279 281 280 285 281 269 263 273 294 306 308 265 238 277 292 270 244 220 205 216 57 47 44 36 37 41 33 25 21 20 36 64 85 83 78 79 77 80 80 86 90 95 103
92 116 166 173 170 168 160 139 131 99 114 172 231 246 267 268 262 267 286 308 310 308 306 308 315 323 332 336 339 341 342 339 328 309 289 276 266 258 261 264 265 264 262 270 272 273 273 272 266 254 262 286 290 260 242 259 276 276 254 230 214 230 203 61 50 44 38 45 43 24 360 360 8 21 67 81 81 81 78 83 84 87 90 93 91
74 132 215 192 177 175 189 184 177 159 158 183 209 225 233 255 259 258 274 286 297 293 289 294 298 302 311 320 327 332 336 338 335 325 304 282 271 263 261 263 264 262 257 260 262 266 268 271 272 259 252 261 268 261 252 252 263 271 264 238 220 233 235 122 64 56 43 52 55 50 328 331 348 342 350 77 88 87 76 83 87 87 91 91 83
68 85 158 217 205 181 207 218 218 215 210 217 217 225 230 244 252 250 258 264 279 281 279 282 291 295 302 312 316 324 332 336 334 329 318 295 277 267 262 260 262 264 259 257 255 260 263 264 269 263 253 248 246 253 257 255 256 263 267 251 226 227 240 223 132 114 49 54 60 65 271 299 330 335 305 328 100 106 83 81 84 82 84 86 84
67 66 73 137 224 208 221 234 237 235 232 238 241 246 241 247 254 254 261 266 270 275 276 273 278 287 296 304 309 318 329 335 335 329 322 306 284 270 265 261 263 265 258 255 257 259 258 258 262 256 250 245 239 243 255 256 251 256 265 263 240 226 233 236 216 203 150 59 76 79 268 283 310 331 304 276 262 208 111 96 90 80 74 74 80
65 59 54 57 331 218 234 246 249 249 247 249 254 258 258 260 262 262 264 267 270 275 279 276 278 283 289 293 301 310 321 330 333 329 321 312 292 271 262 260 262 261 254 250 254 260 256 250 251 253 253 247 235 237 249 256 252 253 263 266 259 237 230 233 234 223 198 84 94 114 263 269 287 315 308 278 268 262 216 115 100 85 66 58 56
50 45 42 41 24 308 257 250 252 257 260 259 261 261 262 265 267 269 268 271 274 278 283 285 285 286 288 289 294 298 306 321 331 330 321 314 298 275 259 254 255 255 261 259 252 260 259 246 246 253 258 251 232 234 242 252 257 255 261 264 267 256 237 231 237 234 211 205 114 157 264 259 270 298 310 282 269 267 267 221 112 89 67 48 35
38 27 27 32 23 1 289 272 255 253 261 265 268 269 268 269 269 271 271 272 274 277 282 283 284 285 286 286 286 291 297 307 325 330 322 320 308 283 260 252 252 254 268 271 260 264 262 247 246 251 260 258 234 233 241 243 256 259 262 264 267 267 248 233 234 238 224 218 148 191 255 255 262 282 298 282 274 272 266 256 266 276 49 26 358
40 21 17 23 24 28 309 289 280 261 265 271 277 280 280 281 280 279 277 276 276 278 279 279 279 279 280 282 282 287 293 296 315 326 320 320 316 294 267 256 258 259 267 277 275 275 269 255 253 254 260 262 242 236 242 240 248 255 261 263 267 272 258 238 233 236 233 230 191 208 244 250 256 269 286 282 275 274 267 257 262 272 275 285 296
48 26 15 17 22 30 21 359 335 282 278 285 291 295 295 296 294 293 291 290 287 285 283 281 280 276 273 275 278 280 282 285 300 313 314 307 307 303 277 261 262 265 270 279 283 284 287 279 269 261 255 256 247 240 242 243 244 249 255 260 265 271 265 247 237 233 235 238 223 219 239 250 256 264 278 280 275 273 271 266 265 270 273 273 277
58 38 23 21 23 23 23 25 22 4 297 282 285 296 301 301 299 297 296 296 294 291 289 285 284 281 272 265 267 271 269 271 281 297 306 300 298 306 289 267 262 265 273 280 285 286 295 299 287 282 275 262 255 251 246 244 247 249 251 257 264 266 265 254 243 236 234 239 236 231 241 250 259 265 268 272 276 271 271 272 270 272 273 274 276
72 58 46 40 38 37 38 41 41 37 28 3 316 307 305 304 303 299 299 302 302 301 300 292 286 287 278 259 255 259 256 254 261 278 288 285 285 298 296 279 266 263 269 276 283 285 289 297 295 299 305 290 278 275 266 253 250 251 252 258 264 265 264 260 249 240 233 237 241 244 248 250 257 266 264 264 270 269 270 272 272 274 276 276 275
84 76 66 62 58 58 58 60 57 54 58 55 42 29 8 346 338 329 326 323 317 311 310 307 298 295 287 262 248 249 248 246 248 260 268 257 250 272 290 288 274 267 267 273 279 281 284 291 296 294 297 297 294 293 286 271 257 251 251 254 262 265 264 263 257 245 234 234 238 248 256 253 253 261 263 262 264 264 266 268 271 272 272 275 276
86 84 71 69 72 73 71 70 68 62 65 61 53 50 38 22 10 5 359 345 332 319 311 311 309 303 293 268 249 244 241 238 238 250 261 254 247 256 268 275 276 273 270 272 274 276 279 281 288 291 286 283 284 286 288 282 268 259 251 246 254 262 262 260 257 249 238 233 231 240 254 255 252 256 259 258 258 260 262 263 267 270 268 269 272
82 84 72 68 75 79 82 82 80 73 73 68 60 53 46 31 19 13 7 357 349 340 327 317 313 304 285 268 252 242 235 231 232 243 247 244 248 251 252 259 269 276 276 277 276 275 276 277 279 284 286 282 284 286 289 290 286 283 269 255 251 253 256 259 257 250 241 236 231 231 246 253 253 254 254 253 253 256 258 258 261 267 268 268 270
86 86 80 76 74 79 86 89 91 86 81 75 68 61 53 43 34 25 16 12 4 354 349 342 335 325 293 271 254 240 231 227 228 236 237 233 233 237 245 252 260 271 278 282 283 279 275 275 276 278 282 285 290 295 300 302 301 304 296 285 266 250 248 260 264 257 242 237 235 234 240 247 252 253 252 250 250 252 254 254 256 261 264 266 269
93 87 78 73 70 72 75 79 83 82 82 80 73 64 57 52 47 40 34 30 21 8 5 358 345 340 320 289 263 244 229 222 225 234 240 241 239 239 244 251 258 267 274 281 286 288 283 277 275 274 278 283 289 292 296 301 302 304 302 306 292 263 255 258 262 267 251 238 236 237 240 242 247 251 251 249 249 251 251 250 252 257 262 264 265
80 78 71 68 63 61 60 63 64 62 68 77 70 59 53 48 43 40 38 35 30 23 19 12 358 351 341 308 260 242 229 224 227 236 246 252 255 253 253 256 262 265 269 276 282 290 293 287 278 274 276 281 285 288 290 293 295 298 295 298 300 282 271 260 258 270 266 249 240 239 242 244 244 247 250 250 250 252 252 250 250 255 261 263 262
49 51 49 50 51 47 43 47 50 47 43 59 64 53 43 38 37 35 33 30 28 24 23 22 18 11 356 327 264 244 236 235 237 243 253 258 261 262 263 262 264 268 273 279 284 286 289 288 284 279 278 281 284 287 289 292 292 294 293 291 292 290 282 265 260 269 271 265 254 245 245 247 247 246 248 249 250 252 254 253 251 252 256 260 262
15 20 18 18 32 35 28 29 35 35 28 36 53 47 36 28 28 28 25 23 20 17 18 21 24 22 11 348 297 269 254 251 250 252 260 265 267 267 267 265 266 270 274 280 286 288 285 282 284 283 282 284 288 289 290 292 292 292 290 289 288 286 278 264 263 265 266 266 262 252 247 247 250 250 249 248 249 251 255 257 256 254 256 260 264
9 8 6 5 14 22 12 8 15 22 17 18 35 38 34 27 21 21 18 16 13 12 14 18 20 22 22 14 335 293 274 264 258 259 265 270 272 272 271 270 270 271 273 276 279 283 284 281 281 283 286 291 294 294 293 291 291 290 290 289 286 282 275 267 264 261 264 266 262 258 252 249 251 252 251 249 249 250 254 259 261 261 259 260 263
21 15 13 12 13 12 2 355 358 5 6 10 26 31 29 24 20 19 16 14 14 12 13 18 20 20 22 23 19 335 296 278 270 269 272 275 276 277 277 276 275 276 276 276 275 276 278 279 279 280 282 286 288 289 288 288 288 288 290 290 287 282 280 277 273 271 271 267 263 264 260 255 253 253 253 252 252 252 254 257 261 264 264 262 261
40 41 39 37 30 22 12 8 7 9 13 22 29 25 25 26 26 23 18 19 21 17 15 18 21 21 20 18 22 19 360 328 303 290 289 290 290 290 289 286 284 282 281 279 277 274 273 274 274 273 272 273 275 277 280 282 285 286 287 289 288 288 288 283 279 280 277 268 263 264 265 263 261 259 258 256 256 257 259 260 261 263 265 265 263
46 52 55 55 52 44 38 37 35 33 38 42 37 28 28 31 33 32 29 29 29 28 27 25 22 22 22 20 20 20 19 14 3 353 343 332 323 317 311 306 300 293 290 286 282 277 273 269 268 268 268 269 272 274 276 276 280 285 286 287 287 288 290 287 282 281 278 272 266 262 266 272 273 270 267 263 261 261 263 263 263 263 265 267 266
43 48 53 57 57 52 51 53 49 48 51 52 49 40 36 35 35 38 37 35 36 37 37 34 31 28 26 26 24 23 22 22 20 19 15 8 0 352 342 334 326 316 308 302 297 292 282 272 267 266 266 266 268 272 275 274 274 278 283 286 286 286 288 288 286 283 279 277 273 267 268 274 274 272 271 269 267 265 264 264 265 265 265 267 267
38 40 46 53 56 54 54 56 54 52 51 52 51 46 43 40 37 38 38 37 39 41 39 37 36 33 30 30 30 29 28 27 24 24 23 20 17 12 5 0 353 346 338 330 324 317 307 289 274 268 266 265 266 268 271 273 272 271 274 278 281 284 286 286 286 285 282 279 277 274 272 272 271 269 271 272 272 269 266 265 265 266 265 266 266
35 33 39 46 51 54 54 54 53 50 50 51 49 46 46 43 40 41 42 41 41 40 38 37 35 35 35 33 33 33 32 30 27 25 24 23 21 19 16 12 7 4 360 354 349 340 331 319 300 283 274 270 269 269 269 269 270 269 267 268 272 280 286 287 285 284 283 281 280 280 278 277 274 271 271 271 272 273 271 268 266 265 265 265 265
32 29 33 40 45 52 54 52 52 50 50 50 45 43 44 43 42 42 43 44 43 40 38 40 40 38 36 31 30 32 30 27 26 25 25 22 20 19 18 15 13 13 10 6 3 357 349 340 328 310 294 284 278 274 271 269 267 267 265 264 265 269 275 281 285 285 284 284 282 280 281 280 278 275 273 272 271 272 273 273 271 268 266 267 266
28 27 29 34 42 52 55 53 54 53 52 51 44 42 43 44 43 40 41 44 44 41 39 41 38 35 31 27 28 29 24 21 20 21 22 21 19 17 16 15 14 15 16 13 7 3 358 351 341 330 317 304 292 284 279 274 271 270 267 264 261 262 264 267 274 283 287 288 286 283 282 281 280 278 275 273 271 271 272 274 274 271 270 269 268
28 26 26 30 40 50 55 54 57 56 58 59 52 48 47 47 44 38 38 39 37 36 37 36 32 30 30 28 26 24 20 15 12 14 15 15 14 12 11 11 12 13 12 10 8 3 357 352 347 342 335 328 321 311 301 294 288 283 277 271 265 261 260 260 262 268 274 279 283 287 290 289 286 285 280 275 273 272 272 274 275 274 273 272 271
26 24 24 29 40 50 54 54 62 66 69 70 65 61 58 52 43 39 37 33 32 33 34 32 29 28 28 24 19 17 17 12 8 8 6 6 6 5 4 5 7 7 4 3 3 1 356 352 347 346 343 340 338 334 328 322 315 308 300 291 281 271 265 260 257 260 263 265 269 276 283 286 285 288 288 283 279 277 275 275 276 277 276 276 276
26 23 23 30 42 56 62 60 70 79 80 81 79 75 69 59 52 51 47 39 35 35 35 32 27 25 24 22 18 16 17 13 9 5 1 359 359 359 359 0 1 360 358 356 354 353 353 352 347 344 343 340 337 337 337 334 329 327 323 314 306 301 290 277 266 263 264 265 267 269 272 275 277 282 287 283 276 272 272 273 273 274 276 278 280
37 28 27 32 43 61 72 74 82 89 90 92 93 88 79 73 69 66 62 53 45 43 42 36 28 21 18 20 17 14 12 9 7 6 2 358 356 355 353 353 355 355 353 351 350 350 349 349 347 344 342 340 336 334 333 333 334 334 335 332 324 321 316 303 290 280 275 273 273 273 273 274 274 275 278 276 269 262 260 263 265 266 267 269 272
62 48 38 36 48 66 79 85 87 92 95 93 95 94 88 81 75 71 67 63 56 51 49 43 36 29 23 22 18 12 7 3 2 2 359 357 354 351 347 347 348 347 347 346 346 348 349 348 347 346 343 340 336 333 333 333 332 332 332 334 334 332 331 326 317 306 297 290 284 282 281 280 278 276 275 275 273 267 260 261 264 261 257 258 260
88 77 64 53 63 78 86 92 93 96 99 94 93 95 94 87 79 73 68 63 58 54 50 46 42 37 32 28 22 17 13 7 3 360 355 351 348 346 344 345 345 344 342 339 337 340 345 347 346 346 346 343 338 334 331 328 327 330 331 328 326 327 332 334 330 325 322 319 312 304 298 294 289 283 281 281 283 283 278 276 276 269 257 254 258
111 108 103 92 94 97 97 103 106 104 105 105 101 98 96 91 84 77 67 61 57 52 48 44 42 37 32 28 22 18 16 12 8 5 1 355 351 349 348 347 346 343 340 338 338 340 342 345 346 345 342 340 338 332 328 326 324 320 318 321 322 320 321 323 324 324 325 334 338 332 324 319 313 306 300 296 293 289 286 286 288 286 278 269 265
126 125 128 130 128 121 118 117 113 113 119 118 112 105 96 86 80 72 62 60 55 50 46 42 38 35 31 25 20 18 15 11 9 7 4 1 359 356 353 351 350 348 348 348 350 348 345 344 346 346 342 340 339 337 334 329 325 320 314 317 324 326 322 313 310 310 311 329 343 336 327 324 323 323 322 318 314 306 296 294 296 296 293 287 280
134 134 140 144 141 137 132 123 116 118 122 117 111 103 93 80 72 66 60 58 53 46 42 39 36 32 28 23 20 18 14 11 10 8 6 4 2 360 358 357 356 357 357 357 355 352 348 344 341 344 350 353 351 349 343 336 336 336 329 323 324 325 318 304 301 304 309 324 337 327 318 316 318 322 323 322 321 319 311 307 306 305 301 295 292
138 139 142 144 145 144 135 124 115 109 104 101 99 93 90 85 77 72 63 56 52 47 43 40 36 30 26 23 20 16 13 12 10 8 6 5 5 4 3 2 360 359 358 357 355 353 353 351 348 347 352 359 1 359 356 350 348 343 336 333 332 330 321 308 300 301 311 319 323 319 315 312 312 315 315 314 315 315 314 313 313 313 311 306 301
142 141 141 143 144 140 132 123 113 106 99 95 94 89 87 87 83 77 69 61 57 54 46 41 34 27 24 20 18 15 12 10 9 7 6 6 5 4 4 3 2 1 359 358 357 358 358 358 358 356 354 355 1 8 9 7 3 356 351 348 344 341 335 324 319 314 312 312 307 313 313 307 307 309 309 309 310 311 311 312 313 314 315 314 311
147 145 144 144 141 137 131 125 117 108 101 95 95 91 87 86 84 80 74 68 62 53 42 32 26 22 18 15 14 12 9 8 6 5 4 3 3 3 2 1 1 1 0 1 2 2 1 0 1 2 1 359 1 6 10 14 17 17 16 10 357 347 339 333 329 319 310 307 301 307 309 305 305 306 306 308 309 309 311 312 314 316 317 315 312
152 150 149 145 140 139 134 128 123 114 104 97 94 92 89 84 79 72 58 46 35 29 24 20 18 17 14 11 9 6 4 3 1 0 360 359 359 358 358 357 357 357 358 359 359 359 360 1 2 2 3 3 360 358 2 10 17 19 23 26 18 355 340 339 338 322 313 310 304 304 305 305 306 305 305 310 311 311 315 317 319 321 321 316 311
157 156 153 149 146 141 137 132 125 116 107 97 88 81 72 63 52 42 35 27 25 25 23 18 14 12 9 5 2 360 358 356 356 356 355 355 354 354 353 353 352 352 352 352 352 354 357 357 359 359 0 360 358 357 358 359 1 3 9 10 5 358 349 345 342 332 324 318 315 311 305 304 309 309 310 313 316 319 321 323 324 324 322 317 312
163 162 158 155 154 150 144 138 130 120 109 92 76 62 49 41 33 29 25 22 21 21 18 12 9 6 2 360 358 356 355 354 354 353 352 352 351 351 351 350 349 349 349 349 349 350 350 350 350 352 353 354 356 357 357 355 353 352 352 349 343 342 345 343 342 343 336 326 321 320 314 308 308 311 315 318 320 325 329 331 331 324 316 312 310
168 166 163 162 161 158 154 148 140 127 111 89 64 46 35 30 24 19 16 14 13 10 7 3 360 358 356 355 356 355 356 356 355 355 355 353 353 352 351 349 349 349 349 349 349 347 345 344 344 345 346 349 352 352 352 352 352 350 348 345 342 335 332 334 334 337 339 332 325 325 324 322 317 313 314 319 322 327 332 336 333 318 308 305 304
170 167 167 167 166 163 161 154 145 130 107 76 46 31 24 18 12 9 7 5 3 0 357 353 352 353 352 353 354 356 357 358 358 359 358 358 358 357 356 355 353 353 352 350 349 348 346 345 344 344 343 343 344 345 346 346 345 346 345 344 345 344 339 335 332 333 336 334 327 325 326 327 325 322 320 319 320 323 332 339 330 309 305 303 302
172 171 171 171 170 166 164 160 150 136 96 51 28 16 12 6 2 3 1 360 359 357 353 352 354 354 354 356 358 358 358 359 0 0 359 0 1 360 359 359 358 357 356 354 353 351 350 349 347 346 344 342 340 339 339 339 338 338 340 340 344 347 349 344 335 332 334 333 328 325 325 325 321 321 324 324 320 318 326 336 326 307 306 303 304